Location: Galliano
(29.4422°N, 90.2993°W)
Time: 16:16:54
(UTC-05:00)

Tiangong 2 - Visible Passes

Search period start: 24 May 2018 00:00
Search period end: 03 June 2018 00:00
Orbit: 382 x 385 km, 42.8° (Epoch: 24 May)

Date Brightness Start Highest point End Pass type
(mag) Time Alt. Az. Time Alt. Az. Time Alt. Az.
24 May 3.9 20:40:47 10° WNW 20:43:06 19° NNW 20:45:26 10° NNE visible
26 May 4.1 20:18:55 10° NW 20:20:26 13° NNW 20:21:57 10° NNE visible
29 May 4.0 22:11:36 10° NNW 22:12:57 13° NNE 22:12:57 13° NNE visible
30 May 4.6 22:47:32 10° NW 22:47:52 12° NW 22:47:52 12° NW visible
31 May 3.2 21:48:05 10° NNW 21:50:26 19° NNE 21:50:36 19° NNE visible
01 Jun 3.8 20:48:49 10° NNW 20:50:22 13° NNE 20:51:55 10° NE visible
01 Jun 3.7 22:24:22 10° NW 22:25:32 20° NW 22:25:32 20° NW visible
02 Jun 2.3 21:24:43 10° NW 21:27:35 32° NNE 21:28:19 28° ENE visible
